Meteo Giornale » Osservazioni meteo Italia » Catania-Sigonella

ore: 04:55 - Osservazioni Meteo Catania-Sigonella
Lat. 37° 24' N Lon. 14° 55' E Alt. 22 metri s.l.m.

nuvoloso Europe/Rome

12 °C

Nuvoloso

Temp. 24 Ore

7 °C

14 °C

Ovest/Nord-Ovest

38.8 Km/h

Dew point 6 °C

Umidità 66 %

Visibilità  10 Km

Il sole sorge alle ore 07:05

Il sole tramonta alle ore 16:44

Data e Ora Cielo e Fenomeni T °C DP °C Um. % Pres. hPa Vis. km Vento km/h
Oggi h: 04:55 nuvoloso Nuvoloso 12 6 66 998 10 O/NO 38.8
Oggi h: 03:55 nuvoloso Nuvoloso 12 9 81 997 10 E/NE 31.5
Oggi h: 02:55 coperto_pioggia Pioggia Debole 11 10 93 997 9 O 27.8
Oggi h: 01:55 coperto_pioggia Pioggia Debole 12 11 93 997 9 O 40.7
Oggi h: 00:55 molto_nuvoloso Molto Nuvoloso 13 9 76 995 10 O 50
Oggi h: 00:20 nuvoloso Nuvoloso 14 12 87 995 10 O 44.4
Ieri h: 23:55 nuvoloso Nuvoloso 14 12 87 995 10 O 33.3
Ieri h: 23:12 molto_nuvoloso Molto Nuvoloso 13 13 100 996 10 O 27.8
Ieri h: 22:55 molto_nuvoloso Molto Nuvoloso 13 13 100 996 10 O/SO 29.6
Ieri h: 21:55 coperto_pioggia Pioggia Debole 12 12 100 996 9 N 3.7
Ieri h: 20:55 nuvoloso Nuvoloso 12 12 100 998 10 O/SO 18.5
Ieri h: 18:55 coperto_pioggia Pioggia Debole 12 12 100 1000 6 O/NO 13
Ieri h: 17:55 coperto_pioggia Pioggia Debole 12 12 100 1000 6 O/SO 22.2
Ieri h: 16:55 coperto_pioggia Pioggia Debole 12 12 100 1001 6 O 22.2
Ieri h: 15:55 coperto_pioggia Pioggia Debole 12 12 100 1002 6 SO 16.7
Ieri h: 14:55 molto_nuvoloso Molto Nuvoloso 12 12 100 1002 10 NE 22.2
Ieri h: 12:55 coperto_pioggia Pioggia Debole 12 12 100 1004 8 O/NO 7.4
Ieri h: 11:55 coperto_pioggia Pioggia Debole 13 13 100 1005 8 O 22.2
Ieri h: 10:55 molto_nuvoloso Molto Nuvoloso 13 12 93 1006 10 O/SO 22.2
Ieri h: 09:55 nuvoloso Nuvoloso 10 10 100 1007 10 NO 7.4
Ieri h: 08:55 nuvoloso Nuvoloso 9 8 93 1007 10 NO 11.1
Ieri h: 07:55 nuvoloso Nuvoloso 7 7 100 1007 10 N/NO 7.4
Ieri h: 06:55 nuvoloso Nuvoloso 7 7 100 1007 10 NO 9.3
Ieri h: 05:55 poco_nuvoloso Poco Nuvoloso 8 8 100 1007 10 O 9.3